DW1824 Weather Reports


time (UTC)temp
F
wind
direction
speed
knots
gust
knots
rain 1hr
in
rain 24hr
in
rain mn
in
humidity
%
barometer
mb
20260904081332 80 128 0.0 0.0 0.00 0.00 0.00 92 1013.0
20260904080335 80 128 0.0 0.9 0.00 0.00 0.00 92 1013.0
20260904075341 80 134 0.9 1.7 0.00 0.00 0.00 92 1013.0
20260904074326 80 128 0.9 2.6 0.00 0.00 0.00 92 1013.1
20260904073328 80 129 1.7 2.6 0.00 0.00 0.00 92 1013.1
20260904072333 80 120 1.7 2.6 0.00 0.00 0.00 92 1013.1
20260904071337 80 120 1.7 2.6 0.00 0.00 0.00 92 1013.2
20260904070340 80 131 0.0 0.0 0.00 0.00 0.00 91 1013.4
20260904065327 80 130 0.0 0.9 0.00 0.00 0.00 91 1013.5
20260904064332 80 131 0.0 0.0 0.00 0.00 0.00 91 1013.6
20260904063331 80 131 0.0 0.9 0.00 0.00 0.00 91 1013.6
20260904062338 80 130 0.0 1.7 0.00 0.00 0.00 91 1013.5
20260904061341 81 128 0.0 1.7 0.00 0.00 0.00 91 1013.4
20260904060403 81 128 0.9 1.7 0.00 0.00 0.00 91 1013.4
20260904055327 81 122 0.0 2.6 0.00 0.00 0.00 90 1013.4
20260904054330 81 130 1.7 2.6 0.00 0.00 0.00 91 1013.3
20260904053330 81 131 0.9 1.7 0.00 0.00 0.00 91 1013.2
20260904052334 81 140 0.0 1.7 0.00 0.00 0.00 90 1013.1
20260904051341 81 149 0.9 3.5 0.00 0.00 0.00 90 1013.1
20260904050404 81 137 0.9 2.6 0.00 0.00 0.00 90 1013.1
20260904045348 81 137 1.7 2.6 0.00 0.00 0.05 90 1013.1
20260904044332 81 141 1.7 2.6 0.00 0.00 0.05 90 1013.1
20260904043355 81 147 0.0 0.0 0.00 0.00 0.05 90 1013.2
20260904042340 81 157 0.0 2.6 0.00 0.00 0.05 90 1013.2
20260904041344 81 139 0.9 3.5 0.00 0.00 0.05 90 1013.3
20260904040327 81 132 2.6 3.5 0.00 0.00 0.05 90 1013.3
20260904035333 81 128 1.7 3.5 0.00 0.00 0.05 90 1013.3
20260904034324 81 127 1.7 6.1 0.00 0.00 0.05 90 1013.3
20260904033328 81 144 1.7 3.5 0.00 0.00 0.05 90 1013.3
20260904032332 81 129 1.7 5.2 0.00 0.00 0.05 90 1013.3
20260904031339 80 129 1.7 3.5 0.00 0.00 0.05 90 1013.3
20260904030341 80 135 1.7 2.6 0.00 0.00 0.05 90 1013.2
20260904025326 80 135 0.0 0.0 0.00 0.00 0.02 90 1013.1
20260904024335 80 128 0.0 0.0 0.00 0.00 0.02 89 1013.1
20260904023339 80 130 0.0 0.9 0.00 0.00 0.02 89 1013.0
20260904022344 80 143 0.9 3.5 0.00 0.00 0.02 89 1012.9
20260904021328 80 133 1.7 3.5 0.00 0.00 0.02 88 1012.9
20260904020333 80 134 0.0 0.9 0.00 0.00 0.02 88 1012.8
20260904015338 80 135 0.0 2.6 0.00 0.00 0.02 88 1012.7
20260904014344 80 172 1.7 2.6 0.00 0.00 0.02 87 1012.5
20260904013344 80 135 0.0 0.0 0.00 0.00 0.02 87 1012.4
20260904012333 80 107 0.0 0.9 0.00 0.00 0.02 86 1012.4
20260904011358 80 112 0.0 1.7 0.00 0.00 0.02 86 1012.4
20260904010339 80 116 0.9 1.7 0.00 0.00 0.02 85 1012.3
20260904005325 81 82 0.0 1.7 0.00 0.00 0.02 85 1012.3
20260904004331 81 144 0.0 1.7 0.00 0.00 0.02 85 1012.3
20260904003333 81 133 0.0 1.7 0.00 0.00 0.02 85 1012.2
20260904002336 81 145 0.0 1.7 0.00 0.00 0.02 85 1012.1
20260904001341 81 116 0.0 0.9 0.00 0.00 0.02 85 1012.1
20260904000328 81 110 0.9 4.3 0.00 0.00 0.02 84 1012.3
20260903235353 82 53 0.9 2.6 0.00 0.02 0.02 84 1012.3
20260903234338 82 329 0.0 0.9 0.00 0.02 0.02 83 1012.4
20260903233400 82 44 0.0 0.0 0.00 0.02 0.02 85 1012.5
20260903232404 81 57 0.0 1.7 0.00 0.02 0.02 85 1012.5
20260903231326 80 71 0.0 0.0 0.00 0.02 0.02 86 1012.5
20260903230329 80 116 0.0 2.6 0.00 0.02 0.02 86 1012.6
20260903225354 80 97 0.0 1.7 0.00 0.04 0.02 86 1012.7
20260903224339 80 141 0.0 1.7 0.00 0.04 0.02 86 1012.7
20260903223326 80 138 0.0 1.7 0.00 0.04 0.02 85 1012.7
20260903222350 80 118 0.0 0.9 0.00 0.04 0.02 84 1012.3
20260903221334 80 24 0.0 1.7 0.00 0.04 0.02 86 1012.3
20260903220338 79 62 0.0 2.6 0.00 0.04 0.02 86 1012.3
20260903215343 79 117 0.0 1.7 0.00 0.04 0.02 86 1012.5
20260903214327 79 91 0.0 0.9 0.00 0.04 0.02 86 1012.6
20260903213329 79 108 0.9 1.7 0.00 0.04 0.02 86 1012.7
20260903212334 79 99 0.0 0.9 0.00 0.04 0.02 87 1012.8
20260903211358 78 126 0.0 0.9 0.00 0.04 0.02 87 1013.0
20260903210342 78 126 0.0 0.0 0.00 0.04 0.02 89 1012.9
20260903205327 78 110 0.0 0.0 0.00 0.04 0.02 89 1013.4
20260903204333 78 75 0.0 0.0 0.00 0.04 0.02 88 1013.6
20260903203332 77 41 0.0 4.3 0.00 0.04 0.02 89 1013.6
20260903202338 77 119 3.5 12.2 0.00 0.04 0.02 88 1013.7
20260903201401 76 129 2.6 6.1 0.00 0.04 0.02 88 1013.8
20260903200341 77 133 6.1 9.6 0.00 0.04 0.02 85 1014.4
20260903195329 78 116 2.6 7.0 0.00 0.04 0.02 81 1014.6
20260903194334 79 123 2.6 8.7 0.00 0.04 0.02 78 1014.6
20260903193336 80 103 2.6 12.2 0.00 0.04 0.02 76 1014.2
20260903192341 81 91 2.6 5.2 0.00 0.04 0.02 75 1014.1
20260903191326 83 128 2.6 11.3 0.00 0.04 0.02 70 1014.1
20260903190348 89 272 0.9 1.7 0.00 0.04 0.02 73 1013.6
20260903185354 89 26 0.0 2.6 0.00 0.04 0.02 72 1013.5
20260903184339 90 34 0.0 3.5 0.00 0.04 0.02 70 1013.4
20260903183324 91 360 0.0 1.7 0.00 0.04 0.02 69 1013.4
20260903182349 91 269 0.0 0.9 0.00 0.04 0.02 65 1013.4
20260903181352 91 264 0.0 1.7 0.00 0.04 0.02 65 1013.6
20260903180334 91 278 0.0 1.7 0.00 0.04 0.02 65 1013.8
20260903175338 91 257 0.9 5.2 0.00 0.04 0.02 66 1014.0
20260903174403 91 193 0.9 2.6 0.00 0.04 0.02 68 1013.8
20260903173404 90 168 0.9 4.3 0.00 0.04 0.02 69 1013.9
20260903172326 89 182 0.0 4.3 0.00 0.04 0.02 71 1013.9
20260903171330 89 177 0.0 1.7 0.00 0.04 0.02 72 1014.2
20260903170351 88 187 0.0 2.6 0.00 0.04 0.02 75 1014.4
20260903165337 87 185 0.0 0.0 0.00 0.04 0.02 75 1014.6
20260903164325 87 136 0.0 2.6 0.00 0.04 0.02 76 1014.7
20260903163326 87 145 0.9 2.6 0.00 0.04 0.02 78 1014.8
20260903162331 86 164 0.0 1.7 0.00 0.04 0.02 81 1014.6
20260903161336 86 185 0.9 2.6 0.00 0.04 0.02 81 1014.8
20260903160338 86 150 0.0 2.6 0.00 0.04 0.02 81 1014.7
20260903155326 86 207 0.9 3.5 0.00 0.04 0.02 81 1014.5
20260903154335 86 172 0.9 5.2 0.00 0.04 0.02 80 1014.5
20260903153338 86 182 0.9 3.5 0.00 0.04 0.02 82 1014.6
20260903152343 86 172 1.7 7.0 0.00 0.04 0.02 82 1014.7
20260903151328 85 151 1.7 3.5 0.00 0.04 0.02 83 1014.7
20260903150330 85 184 1.7 4.3 0.00 0.04 0.02 82 1014.7
20260903145336 85 171 0.9 5.2 0.00 0.04 0.02 83 1014.6
20260903144340 85 145 1.7 4.3 0.00 0.04 0.02 82 1014.6
20260903143342 86 156 0.0 5.2 0.00 0.04 0.02 83 1014.6
20260903142331 85 187 0.0 0.0 0.00 0.04 0.02 83 1014.6
20260903141337 85 176 0.0 0.0 0.00 0.04 0.02 84 1014.5
20260903140341 84 149 0.0 2.6 0.00 0.04 0.02 86 1014.5
20260903135326 83 131 0.0 3.5 0.00 0.04 0.02 86 1014.6
20260903134330 83 139 0.9 2.6 0.00 0.04 0.02 87 1014.5
20260903133332 83 141 0.9 2.6 0.00 0.04 0.02 87 1014.4
20260903132338 82 151 0.0 1.7 0.00 0.04 0.02 88 1014.3
20260903131328 82 151 0.0 0.0 0.00 0.04 0.02 88 1014.3
20260903130330 81 168 0.0 0.0 0.00 0.04 0.02 89 1014.2
20260903125336 81 185 0.0 2.6 0.00 0.04 0.02 89 1014.1
20260903124343 81 160 0.0 1.7 0.00 0.04 0.02 89 1014.0
20260903123325 81 170 0.0 1.7 0.00 0.04 0.02 89 1013.9
20260903122330 81 157 0.0 2.6 0.00 0.04 0.02 88 1013.8
20260903121335 81 148 0.0 1.7 0.00 0.04 0.02 88 1013.8
20260903120338 81 146 0.0 3.5 0.00 0.04 0.02 88 1013.7
20260903115328 81 159 0.0 1.7 0.00 0.04 0.02 88 1013.7
20260903114332 81 181 0.0 1.7 0.00 0.04 0.02 88 1013.7
20260903113336 81 187 0.9 2.6 0.00 0.04 0.02 88 1013.6
20260903112342 81 139 0.0 2.6 0.00 0.04 0.02 88 1013.6
20260903111327 81 151 0.9 1.7 0.00 0.04 0.02 87 1013.7
20260903110328 81 189 0.0 1.7 0.00 0.04 0.02 87 1013.8
20260903105334 82 146 0.0 2.6 0.00 0.04 0.00 87 1013.7
20260903104405 81 167 0.0 1.7 0.00 0.04 0.00 87 1013.5
20260903103325 82 171 0.0 1.7 0.00 0.04 0.00 87 1013.5
20260903102352 82 111 0.9 1.7 0.00 0.04 0.00 87 1013.5
20260903101356 82 166 0.0 0.9 0.00 0.04 0.00 87 1013.5
20260903100338 82 180 0.0 2.6 0.00 0.04 0.00 87 1013.4
20260903095344 82 172 0.0 1.7 0.00 0.04 0.00 87 1013.4
20260903094329 82 161 0.9 4.3 0.00 0.04 0.00 87 1013.5
20260903093332 82 151 0.0 2.6 0.00 0.04 0.00 87 1013.5
20260903092338 82 139 0.0 1.7 0.00 0.04 0.00 87 1013.4
20260903091328 82 144 0.0 1.7 0.00 0.04 0.00 87 1013.4
20260903090328 82 149 0.9 2.6 0.00 0.04 0.00 87 1013.3
20260903085335 82 129 0.0 1.7 0.00 0.04 0.00 88 1013.4
20260903084341 82 153 0.9 2.6 0.00 0.04 0.00 88 1013.3
20260903083325 82 174 0.9 3.5 0.00 0.04 0.00 87 1013.3
20260903082351 81 129 0.9 2.6 0.00 0.04 0.00 88 1013.2